weather.gov     
National Weather Service

Terminal Aerodrome Forecast
NWS Homepage
This page is being discontinued on March 12, 2014.
The same data is available at this site. Please update your bookmarks.
Thank you, and we apologize for the inconvenience.
Please send an email to SR-SRH.Webmaster@noaa.gov with any concerns.


Current Version
Previous Version:    01  02  03  04  05  06  07  08  09  10  11  12  13  14  15  16  17  18  19  20  21  22  23  24  25  26  27  28  29  30  
   31  
[Printable]
701
FTUS44 KMOB 302300
TAFMOB
TAF
KMOB 302339Z 3100/3124 16007KT P6SM VCTS SCT025CB BKN080 OVC200
      TEMPO 3100/3101 29010G17KT 5SM TSRA BKN025CB
     FM310200 14004KT P6SM VCSH FEW040 SCT100 BKN200
     FM311500 17009KT P6SM SCT040 SCT120 BKN200=


U.S. Dept. of Commerce
NOAA National Weather Service
1325 East West Highway
Silver Spring, MD 20910
E-mail: w-nws.webmaster@noaa.gov
Page last modified: May 16, 2007
NATIONAL WEATHER SERVICE: for Safety, for Work, for Fun - FOR LIFE